Data for 06/20/2017

Time Sea-Level Adjusted Pressure Absolute Pressure Temperature Relative Humidity Dew Point   
(mb) (inHg) (mb) (inHg) (C) (F) (%) (C) (F)
00:05 1021 30.15 850 25.1 18.6 65.4 41 5.3 41.5
00:10 1021 30.15 850 25.1 19 66.2 41 5.5 41.8
00:15 1021 30.15 850 25.1 19 66.2 41 5.7 42.2
00:20 1021 30.15 850 25.1 18.9 65.9 41 5.6 42.1
00:25 1021 30.15 850 25.1 18.9 66.1 41 5.6 42.1
00:30 1021 30.15 850 25.1 18.9 66 42 5.7 42.2
00:35 1021 30.15 850 25.1 18.8 65.9 42 5.8 42.5
00:40 1021 30.15 850 25.1 18.5 65.4 43 5.7 42.3
00:45 1021 30.15 850 25.1 18.5 65.2 44 6 42.8
00:50 1021 30.15 850 25.1 18.1 64.6 44 6 42.7
00:55 1021 30.15 850 25.1 18 64.4 44 5.8 42.4
01:00 1021 30.15 850 25.1 18.2 64.7 44 5.8 42.4
01:05 1021 30.15 850 25.1 18.2 64.8 45 6.1 43
01:10 1021 30.15 850 25.1 18.1 64.5 46 6.2 43.2
01:15 1021 30.15 850 25.1 17.9 64.2 46 6.1 43
01:20 1021 30.15 850 25.1 17.9 64.2 45 6 42.8
01:25 1021 30.15 850 25.1 17.8 64 46 6.1 42.9
01:30 1020 30.12 850 25.1 17.7 63.8 47 6.3 43.4
01:35 1020 30.12 850 25.1 17.3 63.2 49 6.5 43.6
01:40 1020 30.12 850 25.1 17.3 63.1 48 6.2 43.1
01:45 1020 30.12 850 25.1 17.3 63.2 48 6.4 43.4
01:50 1020 30.12 850 25.1 17.2 62.9 49 6.4 43.6
01:55 1020 30.12 849 25.07 16.8 62.2 51 6.6 43.9
02:00 1020 30.12 849 25.07 16.5 61.6 50 6.2 43.2
02:05 1020 30.12 849 25.07 16.5 61.7 50 6.1 42.9
02:10 1020 30.12 849 25.07 16.6 61.8 49 6 42.8
02:15 1020 30.12 849 25.07 16.5 61.7 51 6.6 43.8
02:20 1020 30.12 849 25.07 16.2 61.1 52 6.4 43.5
02:25 1020 30.12 849 25.07 16.1 60.9 52 6.4 43.5
02:30 1020 30.12 849 25.07 16 60.8 53 6.4 43.6
02:35 1020 30.12 849 25.07 16 60.8 52 6.3 43.3
02:40 1020 30.12 849 25.07 16 60.7 53 6.4 43.5
02:45 1020 30.12 849 25.07 15.9 60.7 52 6.1 43
02:50 1020 30.12 849 25.07 16 60.8 51 6 42.9
02:55 1019 30.09 849 25.07 16 60.9 51 6.1 42.9
03:00 1019 30.09 849 25.07 16 60.8 51 6 42.8
03:05 1019 30.09 849 25.07 16 60.8 51 5.9 42.7
03:10 1019 30.09 848 25.04 16.1 60.9 50 5.8 42.5
03:15 1019 30.09 848 25.04 16.1 61 50 5.7 42.3
03:20 1019 30.09 848 25.04 16 60.8 50 5.8 42.5
03:25 1019 30.09 848 25.04 15.9 60.6 50 5.7 42.2
03:30 1019 30.09 848 25.04 15.9 60.6 50 5.7 42.2
03:35 1019 30.09 848 25.04 15.9 60.7 50 5.6 42
03:40 1019 30.09 848 25.04 15.8 60.4 51 5.6 42.2
03:45 1019 30.09 848 25.04 15.7 60.2 51 5.7 42.2
03:50 1019 30.09 848 25.04 15.6 60 51 5.7 42.2
03:55 1019 30.09 848 25.04 15.3 59.6 52 5.6 42
04:00 1019 30.09 848 25.04 15.3 59.5 52 5.6 42
04:05 1019 30.09 848 25.04 15.3 59.5 51 5.4 41.7
04:10 1019 30.09 848 25.04 15.4 59.8 51 5.3 41.6
04:15 1019 30.09 848 25.04 15.6 60 50 5.3 41.6
04:20 1019 30.09 848 25.04 15.6 60 50 5.2 41.3
04:25 1019 30.09 848 25.04 15.6 60 50 5.3 41.5
04:30 1019 30.09 848 25.04 15.5 59.9 50 5.3 41.5
04:35 1019 30.09 848 25.04 15.4 59.8 50 5.2 41.4
04:40 1019 30.09 848 25.04 15.4 59.6 51 5.4 41.7
04:45 1019 30.09 848 25.04 15.2 59.4 51 5.3 41.6
04:50 1019 30.09 848 25.04 15.2 59.3 52 5.4 41.7
04:55 1019 30.09 848 25.04 15.2 59.4 52 5.4 41.7
05:00 1019 30.09 848 25.04 15.1 59.2 52 5.4 41.7
05:05 1019 30.09 848 25.04 15.1 59.1 52 5.5 41.8
05:10 1019 30.09 848 25.04 15 59 53 5.5 41.9
05:15 1019 30.09 848 25.04 15.1 59.3 50 5 41
05:20 1019 30.09 848 25.04 15.3 59.5 51 5.3 41.6
05:25 1019 30.09 848 25.04 15.1 59.2 52 5.4 41.8
05:30 1019 30.09 848 25.04 15 59.1 53 5.5 41.9
05:35 1019 30.09 848 25.04 15.1 59.1 52 5.5 41.9
05:40 1019 30.09 848 25.04 15.1 59.2 53 5.6 42
05:45 1019 30.09 848 25.04 15.1 59.1 53 5.6 42.1
05:50 1019 30.09 848 25.04 14.9 58.8 54 5.8 42.5
05:55 1019 30.09 848 25.04 15 58.9 53 5.7 42.2
06:00 1019 30.09 848 25.04 15.1 59.1 52 5.5 41.9
06:05 1019 30.09 848 25.04 15.1 59.1 53 5.8 42.4
06:10 1019 30.09 848 25.04 15 59 53 5.6 42.1
06:15 1019 30.09 849 25.07 15.1 59.2 52 5.5 41.9
06:20 1019 30.09 849 25.07 15.2 59.4 52 5.6 42
06:25 1019 30.09 849 25.07 15.3 59.5 53 5.7 42.3
06:30 1019 30.09 849 25.07 15.3 59.6 52 5.6 42.1
06:35 1020 30.12 849 25.07 15.5 59.8 52 5.6 42.1
06:40 1020 30.12 849 25.07 15.5 59.8 52 5.7 42.3
06:45 1020 30.12 849 25.07 15.5 59.9 52 5.8 42.4
06:50 1020 30.12 849 25.07 15.8 60.4 52 6 42.9
06:55 1020 30.12 849 25.07 16 60.8 54 6.7 44
07:00 1020 30.12 849 25.07 16 60.8 54 6.9 44.3
07:05 1021 30.15 850 25.1 16.2 61.1 53 6.7 44.1
07:10 1021 30.15 850 25.1 16 60.8 55 7 44.7
07:15 1020 30.12 850 25.1 15.7 60.3 58 7.6 45.8
07:20 1020 30.12 849 25.07 15.2 59.4 62 8.1 46.6
07:25 1020 30.12 849 25.07 14.5 58 67 8.5 47.2
07:30 1020 30.12 849 25.07 14.1 57.4 69 8.6 47.5
07:35 1020 30.12 849 25.07 14.3 57.8 63 7.5 45.6
07:40 1020 30.12 849 25.07 14.9 58.8 62 7.8 46
07:45 1020 30.12 849 25.07 15.3 59.5 61 7.9 46.3
07:50 1020 30.12 849 25.07 15.6 60.1 59 7.7 45.9
07:55 1020 30.12 849 25.07 16 60.7 59 8 46.3
08:00 1020 30.12 849 25.07 16.2 61.2 61 8.8 47.8
08:05 1020 30.12 850 25.1 16.5 61.7 59 8.4 47.2
08:10 1021 30.15 850 25.1 16.7 62 62 9.4 48.9
08:15 1021 30.15 850 25.1 16.9 62.4 59 9 48.1
08:20 1021 30.15 850 25.1 17.3 63.2 58 9 48.2
08:25 1021 30.15 850 25.1 17.7 63.8 57 9.1 48.3
08:30 1020 30.12 850 25.1 18.4 65.1 52 8.3 47
08:35 1020 30.12 850 25.1 18.6 65.4 51 8.3 46.9
08:40 1020 30.12 850 25.1 18.7 65.7 51 8.5 47.3
08:45 1020 30.12 850 25.1 18.6 65.4 54 9.3 48.8
08:50 1020 30.12 850 25.1 18.7 65.7 56 9.8 49.6
08:55 1020 30.12 849 25.07 19.2 66.5 56 10.3 50.6
09:00 1020 30.12 849 25.07 19.5 67.1 55 10.4 50.6
09:05 1020 30.12 849 25.07 19.9 67.8 47 8.3 47
09:10 1020 30.12 849 25.07 20 68.1 48 8.7 47.7
09:15 1020 30.12 849 25.07 20.6 69 46 8.8 47.8
09:20 1020 30.12 849 25.07 21.7 71 43 8.6 47.4
09:25 1020 30.12 849 25.07 22.1 71.7 41 8.2 46.8
09:30 1020 30.12 849 25.07 22.2 72 38 7.4 45.3
09:35 1020 30.12 849 25.07 22.3 72.1 37 7.2 45
09:40 1020 30.12 849 25.07 23 73.3 34 6.5 43.7
09:45 1020 30.12 849 25.07 23.5 74.3 33 6.5 43.7
09:50 1020 30.12 849 25.07 23.5 74.3 34 6.7 44.1
09:55 1020 30.12 849 25.07 23.3 73.9 35 7 44.5
10:00 1020 30.12 849 25.07 23.7 74.6 32 6.2 43.1
10:05 1020 30.12 849 25.07 23.5 74.4 32 6.2 43.2
10:10 1020 30.12 849 25.07 24.1 75.3 31 5.9 42.6
10:15 1020 30.12 849 25.07 24.5 76.1 29 5.6 42.2
10:20 1020 30.12 849 25.07 25 77.1 28 5.6 42.1
10:25 1020 30.12 849 25.07 24.9 76.8 29 6.1 43
10:30 1020 30.12 849 25.07 24.6 76.2 30 6 42.9
10:35 1019 30.09 849 25.07 25 77 29 6.1 43
10:40 1019 30.09 849 25.07 25.4 77.7 30 6.9 44.3
10:45 1019 30.09 849 25.07 24.9 76.8 31 6.9 44.4
10:50 1019 30.09 848 25.04 25.3 77.5 28 5.9 42.7
10:55 1019 30.09 848 25.04 26 78.7 29 6.6 43.9
11:00 1019 30.09 848 25.04 26.3 79.4 28 6.5 43.7
11:05 1019 30.09 848 25.04 26 78.8 28 6.5 43.7
11:10 1019 30.09 848 25.04 26.2 79.2 29 6.8 44.3
11:15 1019 30.09 848 25.04 26.1 79 28 6.6 43.9
11:20 1019 30.09 848 25.04 26.4 79.5 30 7.5 45.5
11:25 1019 30.09 848 25.04 26.2 79.1 30 7.5 45.6
11:30 1019 30.09 848 25.04 26.3 79.4 29 6.9 44.5
11:35 1019 30.09 848 25.04 26.8 80.3 28 7 44.6
11:40 1019 30.09 848 25.04 27 80.7 29 7.7 45.9
11:45 1019 30.09 848 25.04 26.9 80.5 27 6.8 44.2
11:50 1019 30.09 848 25.04 27.1 80.8 27 6.9 44.4
11:55 1019 30.09 848 25.04 27.4 81.3 27 7.3 45.1
12:00 1019 30.09 848 25.04 27.9 82.2 27 7.3 45.1
12:05 1019 30.09 848 25.04 27.7 81.9 28 7.8 46.1
12:10 1019 30.09 848 25.04 26.6 79.9 30 7.8 46.1
12:15 1019 30.09 848 25.04 27.6 81.7 26 6.9 44.5
12:20 1019 30.09 848 25.04 28.1 82.7 27 7.7 45.9
12:25 1019 30.09 848 25.04 28.1 82.6 27 7.7 45.9
12:30 1019 30.09 848 25.04 27.5 81.5 29 8.2 46.7
12:35 1019 30.09 848 25.04 27.3 81.2 28 7.5 45.4
12:40 1019 30.09 848 25.04 28 82.5 27 7.5 45.5
12:45 1019 30.09 848 25.04 28.4 83 27 8.1 46.5
12:50 1019 30.09 848 25.04 28.6 83.5 27 8.1 46.5
12:55 1018 30.06 848 25.04 28.5 83.3 27 7.8 46
13:00 1018 30.06 848 25.04 28.6 83.6 26 7.8 46
13:05 1018 30.06 848 25.04 28.6 83.5 28 8.4 47
13:10 1018 30.06 848 25.04 28.4 83.1 28 8.6 47.5
13:15 1018 30.06 848 25.04 28.2 82.7 28 8.1 46.6
13:20 1018 30.06 847 25.01 28.1 82.7 26 7.3 45.1
13:25 1018 30.06 847 25.01 28.9 83.9 27 8.1 46.7
13:30 1018 30.06 847 25.01 29.2 84.5 26 7.8 46.1
13:35 1018 30.06 847 25.01 29.2 84.6 25 7.6 45.7
13:40 1018 30.06 847 25.01 29.1 84.4 25 7.2 44.9
13:45 1018 30.06 847 25.01 29 84.1 25 7.5 45.5
13:50 1018 30.06 847 25.01 29.5 85.1 25 7.6 45.6
13:55 1018 30.06 847 25.01 29.3 84.7 26 7.9 46.1
14:00 1018 30.06 847 25.01 29.2 84.6 25 7.6 45.7
14:05 1018 30.06 847 25.01 28.9 84.1 26 7.6 45.7
14:10 1018 30.06 847 25.01 29.1 84.3 25 7.6 45.7
14:15 1018 30.06 847 25.01 29.6 85.2 24 7.1 44.8
14:20 1018 30.06 847 25.01 29.3 84.7 24 7.1 44.7
14:25 1018 30.06 847 25.01 30 86.1 23 7.2 44.9
14:30 1018 30.06 847 25.01 30.2 86.4 25 8.1 46.7
14:35 1017 30.03 847 25.01 30.5 86.8 23 7.6 45.6
14:40 1017 30.03 847 25.01 30.3 86.5 24 7.9 46.2
14:45 1017 30.03 847 25.01 30.6 87 23 7.6 45.7
14:50 1017 30.03 846 24.98 31 87.8 24 8.2 46.8
14:55 1017 30.03 846 24.98 31.3 88.3 23 7.8 46
15:00 1017 30.03 846 24.98 31.2 88.2 23 7.8 46.1
15:05 1017 30.03 846 24.98 30.7 87.2 23 7.5 45.5
15:10 1017 30.03 846 24.98 31.2 88.1 22 7.6 45.6
15:15 1017 30.03 846 24.98 32 89.6 22 7.9 46.2
15:20 1017 30.03 846 24.98 31.6 88.9 23 8.6 47.5
15:25 1017 30.03 846 24.98 31.2 88.2 23 7.8 46
15:30 1017 30.03 846 24.98 30.5 86.9 23 7.6 45.6
15:35 1016 30 846 24.98 30 86 25 8.1 46.6
15:40 1016 30 846 24.98 30.6 87.2 24 7.9 46.3
15:45 1016 30 845 24.95 31.1 87.9 23 7.9 46.2
15:50 1016 30 845 24.95 31.5 88.7 23 8 46.5
15:55 1016 30 845 24.95 31.4 88.4 22 7.3 45.1
16:00 1016 30 845 24.95 31.7 89 21 7.3 45.2
16:05 1016 30 845 24.95 32.1 89.8 23 8.6 47.5
16:10 1016 30 845 24.95 32.1 89.8 22 8.2 46.7
16:15 1016 30 845 24.95 31.8 89.3 21 7.5 45.5
16:20 1016 30 845 24.95 31.7 89.1 21 7.1 44.7
16:25 1016 30 845 24.95 31.7 89.1 22 8.1 46.5
16:30 1016 30 845 24.95 31.4 88.4 22 7.4 45.3
16:35 1016 30 845 24.95 31.6 88.9 23 8 46.4
16:40 1016 30 845 24.95 31.8 89.2 23 8.5 47.3
16:45 1016 30 845 24.95 31.4 88.5 23 7.9 46.2
16:50 1016 30 845 24.95 31.2 88.2 22 7.2 44.9
16:55 1016 30 845 24.95 31.3 88.3 22 7.3 45.1
17:00 1016 30 845 24.95 31.1 88 23 8 46.4
17:05 1016 30 845 24.95 31.2 88.1 24 8.7 47.7
17:10 1016 30 845 24.95 31.2 88.2 22 7.2 44.9
17:15 1015 29.97 845 24.95 31.7 89.1 21 7.1 44.7
17:20 1015 29.97 845 24.95 31.9 89.4 22 8 46.4
17:25 1015 29.97 845 24.95 31.8 89.2 22 7.6 45.7
17:30 1015 29.97 845 24.95 31.3 88.3 22 7.6 45.7
17:35 1015 29.97 845 24.95 30.8 87.4 23 7.8 46.1
17:40 1015 29.97 845 24.95 30.6 87.2 23 7.3 45.1
17:45 1015 29.97 844 24.92 31.3 88.3 22 7.6 45.7
17:50 1015 29.97 844 24.92 31.2 88.2 24 8.4 47
17:55 1015 29.97 844 24.92 30.5 86.8 24 7.7 45.9
18:00 1015 29.97 844 24.92 30.2 86.4 23 7.4 45.3
18:05 1015 29.97 844 24.92 30.7 87.2 24 8.1 46.6
18:10 1015 29.97 844 24.92 30.8 87.4 23 7.6 45.8
18:15 1015 29.97 844 24.92 30.5 86.8 24 7.7 45.8
18:20 1015 29.97 844 24.92 30.9 87.6 23 7.7 45.8
18:25 1015 29.97 844 24.92 30.9 87.6 23 7.9 46.1
18:30 1015 29.97 844 24.92 31.2 88.2 23 8.1 46.6
18:35 1015 29.97 844 24.92 31.3 88.3 24 8.4 47.2
18:40 1015 29.97 844 24.92 30.5 87 29 10.8 51.4
18:45 1015 29.97 845 24.95 29.8 85.6 31 11.1 52
18:50 1015 29.97 845 24.95 28.7 83.7 32 10.8 51.4
18:55 1015 29.97 845 24.95 27.8 82 32 10 50
19:00 1016 30 845 24.95 28.1 82.6 32 10.3 50.6
19:05 1016 30 845 24.95 27.9 82.3 32 10 50.1
19:10 1016 30 845 24.95 28.1 82.5 32 10 50
19:15 1016 30 845 24.95 27.7 81.9 32 10 50.1
19:20 1016 30 845 24.95 27.8 82 32 9.9 49.8
19:25 1016 30 845 24.95 27.7 81.8 32 9.9 49.8
19:30 1016 30 845 24.95 27 80.5 34 9.8 49.7
19:35 1016 30 845 24.95 26.5 79.6 34 9.5 49.1
19:40 1016 30 845 24.95 26.3 79.3 34 9.4 48.9
19:45 1016 30 845 24.95 26.4 79.5 33 9.3 48.7
19:50 1016 30 845 24.95 26.5 79.7 36 10.6 51
19:55 1016 30 845 24.95 26.4 79.6 36 10.3 50.5
20:00 1016 30 845 24.95 26.5 79.7 33 9.3 48.7
20:05 1016 30 846 24.98 26.2 79.2 37 10.4 50.8
20:10 1016 30 846 24.98 25.7 78.2 38 10.6 51
20:15 1016 30 846 24.98 25.3 77.5 39 10.7 51.3
20:20 1017 30.03 846 24.98 24.7 76.4 42 11 51.8
20:25 1017 30.03 846 24.98 24.4 75.9 43 11.3 52.3
20:30 1017 30.03 846 24.98 24.3 75.7 44 11.4 52.4
20:35 1017 30.03 846 24.98 24.2 75.6 42 10.6 51.1
20:40 1017 30.03 846 24.98 24.3 75.7 41 10.5 50.9
20:45 1017 30.03 846 24.98 24.2 75.6 42 10.5 51
20:50 1017 30.03 846 24.98 24.1 75.4 42 10.5 51
20:55 1017 30.03 846 24.98 23.9 75 41 10.2 50.4
21:00 1017 30.03 846 24.98 23.8 74.8 42 10.1 50.2
21:05 1017 30.03 846 24.98 23.7 74.6 41 9.7 49.5
21:10 1017 30.03 846 24.98 23.6 74.4 42 9.9 49.9
21:15 1017 30.03 846 24.98 23.5 74.3 41 9.7 49.5
21:20 1017 30.03 846 24.98 23.3 74 44 10.6 51
21:25 1017 30.03 846 24.98 22.7 72.8 49 11.6 52.9
21:30 1017 30.03 846 24.98 22.1 71.8 48 10.9 51.6
21:35 1017 30.03 846 24.98 22.2 71.9 48 10.7 51.2
21:40 1017 30.03 846 24.98 22.2 72 48 10.9 51.6
21:45 1017 30.03 846 24.98 22.2 71.9 49 11 51.7
21:50 1017 30.03 846 24.98 22.1 71.8 51 11.7 53.1
21:55 1017 30.03 846 24.98 21.7 71.1 51 11.4 52.5
22:00 1017 30.03 846 24.98 21.6 70.9 51 11.2 52.2
22:05 1017 30.03 846 24.98 21.6 70.8 52 11.4 52.6
22:10 1017 30.03 846 24.98 21.4 70.5 53 11.5 52.6
22:15 1017 30.03 846 24.98 21.1 69.9 54 11.6 52.8
22:20 1017 30.03 846 24.98 20.7 69.2 55 11.3 52.4
22:25 1017 30.03 846 24.98 20.4 68.8 55 11.3 52.4
22:30 1017 30.03 846 24.98 20.2 68.3 56 11.4 52.5
22:35 1017 30.03 846 24.98 19.9 67.7 57 11.3 52.3
22:40 1017 30.03 846 24.98 19.8 67.6 58 11.3 52.3
22:45 1017 30.03 846 24.98 19.7 67.5 57 11.1 52
22:50 1017 30.03 846 24.98 19.7 67.4 57 11 51.8
22:55 1017 30.03 846 24.98 19.7 67.4 57 11.1 52
23:00 1017 30.03 846 24.98 19.5 67.1 58 11.1 52
23:05 1017 30.03 846 24.98 19.4 66.9 58 11.1 52
23:10 1017 30.03 846 24.98 19.2 66.6 59 11.2 52.2
23:15 1017 30.03 846 24.98 19 66.2 60 11.1 51.9
23:20 1017 30.03 846 24.98 18.9 66.1 60 11 51.9
23:25 1017 30.03 846 24.98 18.8 65.8 60 11 51.9
23:30 1017 30.03 846 24.98 18.6 65.4 59 10.6 51.1
23:35 1017 30.03 846 24.98 18.7 65.6 60 10.8 51.4
23:40 1017 30.03 846 24.98 18.8 65.8 58 10.3 50.6
23:45 1017 30.03 846 24.98 18.8 65.9 57 10.2 50.4
23:50 1017 30.03 846 24.98 18.9 65.9 57 10.3 50.6
23:55 1017 30.03 846 24.98 18.7 65.6 58 10.3 50.6
24:00 1017 30.03 846 24.98 18.5 65.2 58 10.1 50.2